This is the latest recevied weather packets stored in our database for station/object LA9UTA-13. If no packets are shown the sender has not sent any weather packets the latest 1 day(s).
| Time | Temp. | Humidity | Pressure | Rain* | Wind** | Luminosity | Snow |
|---|---|---|---|---|---|---|---|
| 1777979882 | 8.33° C | 29% | 1009.4 hPa | 0 mm | 2.24 m/s, 137° | 640 W/m² | - |
| 1777978682 | 7.22° C | 32% | 1009.5 hPa | 0 mm | 0 m/s | 522 W/m² | - |
| 1777977482 | 6.67° C | 33% | 1009.6 hPa | 0 mm | 2.24 m/s, 233° | 497 W/m² | - |
| 1777976282 | 7.22° C | 35% | 1009.5 hPa | 0 mm | 1.34 m/s, 229° | 627 W/m² | - |
| 1777975084 | 7.78° C | 31% | 1010.5 hPa | 0 mm | 2.68 m/s, 27° | 177 W/m² | - |
| 1777973882 | 6.11° C | 35% | 1009.6 hPa | 0 mm | 1.79 m/s, 254° | 553 W/m² | - |
| 1777972682 | 5° C | 38% | 1009.8 hPa | 0 mm | 1.34 m/s, 286° | 151 W/m² | - |
| 1777971482 | 6.67° C | 38% | 1009.6 hPa | 0 mm | 1.34 m/s, 20° | 297 W/m² | - |
| 1777970282 | 5.56° C | 38% | 1009.7 hPa | 0 mm | 0 m/s | 500 W/m² | - |
| 1777969082 | 5° C | 39% | 1009.7 hPa | 0 mm | 3.13 m/s, 283° | 521 W/m² | - |
| 1777968297 | 6.11° C | 42% | 1009.7 hPa | 0 mm | 0.89 m/s, 159° | 347 W/m² | - |
| 1777967882 | 5.56° C | 39% | 1009.7 hPa | 0 mm | 1.79 m/s, 165° | 458 W/m² | - |
| 1777966682 | 6.11° C | 42% | 1009.7 hPa | 0 mm | 0.89 m/s, 159° | 347 W/m² | - |
| 1777965482 | 5° C | 42% | 1009.8 hPa | 0 mm | 2.68 m/s, 355° | 312 W/m² | - |
| 1777964282 | 3.89° C | 44% | 1009.8 hPa | 0 mm | 3.13 m/s, 272° | 273 W/m² | - |
| 1777963082 | 3.89° C | 44% | 1009.8 hPa | 0 mm | 1.79 m/s, 359° | 236 W/m² | - |
| 1777961882 | 3.33° C | 54% | 1009.9 hPa | 0 mm | 0.45 m/s, 139° | 195 W/m² | - |
| 1777960682 | 4.44° C | 45% | 1009.8 hPa | 0 mm | 1.34 m/s, 215° | 50 W/m² | - |
| 1777959482 | 5.56° C | 50% | 1009.7 hPa | 0 mm | 0.89 m/s, 152° | 123 W/m² | - |
| 1777958282 | 3.33° C | 57% | 1009.9 hPa | 0 mm | 0.89 m/s, 127° | 94 W/m² | - |
| 1777957082 | 3.33° C | 57% | 1008.9 hPa | 0 mm | 0 m/s | 68 W/m² | - |
| 1777955882 | 1.67° C | 58% | 1009.1 hPa | 0 mm | 0 m/s | 47 W/m² | - |
| 1777954682 | 2.22° C | 59% | 1009 hPa | 0 mm | 0 m/s | 31 W/m² | - |
| 1777953484 | -1.67° C | 72% | 1009.3 hPa | 0 mm | 0 m/s | 19 W/m² | - |
| 1777952282 | -1.11° C | 69% | 1009.3 hPa | 0 mm | 0 m/s | 12 W/m² | - |
* Rain latest hour (hover to see other rain measurements)
** Current wind speed in m/s (hover to see current wind gust speed)